Location: Bucharest
(44.4268°N, 26.1025°E)
Time: 19:28:02
(UTC+03:00)

CUBESAT XI-V - Pass Details

Date: 07 July 2022
Orbit: 668 x 690 km, 98.1° (Epoch: 18 August)

Event Time Altitude Azimuth Distance (km) Brightness Sun altitude
Exits shadow 02:59:37 35° 168° (SSE) 1,083 ? -19.2°
Maximum altitude 03:01:33 87° 252° (WSW) 678 ? -19.1°
Drops below altitude 10° 03:06:10 10° 346° (NNW) 2,106 ? -18.7°
Sets 03:08:24 0° 347° (NNW) 3,023 ? -18.6°
